Regional Weather Roundup
Issued by NWS

Current Version | Previous Version | Text Only | Print | Product List | Glossary On
Versions: 1 2 3 4 5 6 7 8 9 10 11 12 13 14 15 16 17 18 19 20 21 22 23 24 25 26 27 28 29 30 31 32 33 34 35 36 37 38 39 40 41 42 43 44 45 46 47 48 49 50
000
ASUS42 KTBW 281210
RWRFL
FLORIDA REGIONAL WEATHER ROUNDUP
NATIONAL WEATHER SERVICE TAMPA BAY RUSKIN FL
700 AM EST WED JAN 28 2015

NOTE: "FAIR" INDICATES FEW OR NO CLOUDS BELOW 12,000 FEET WITH NO
SIGNIFICANT WEATHER AND/OR OBSTRUCTIONS TO VISIBILITY.


FLZ001>010-012>015-112-114-115-281300-
PANHANDLE FLORIDA

CITY           SKY/WX    TMP DP  RH WIND       PRES   REMARKS
PENSACOLA      CLEAR     43  33  68 N6        30.23R WCI  39
PENSACOLA NAS  CLEAR     39  36  89 N5        30.22R WCI  36
MILTON NAS     CLEAR     40  32  73 N5        30.23R WCI  37
CRESTVIEW      CLEAR     39  32  76 N5        30.25R WCI  36
VALPARAISO     CLEAR     39  33  78 N8        30.21R WCI  33
MARY ESTHER    CLEAR     38  32  77 N8        30.22R WCI  32
TRI COUNTY     FAIR      35  33  92 CALM      30.23R
PANAMA CITY    FAIR      36  33  89 NW5       30.21R WCI  32
TYNDALL AFB    CLEAR     44  35  70 N6        30.22R WCI  41
APALACHICOLA   CLEAR     42  34  73 N3        30.20R

STATION/POSITION SKY/WX   TEMP    WIND        PRES    WAVE   SWELL
                          AIR SEA DIR/SP/G            HT/PER HT/PER
                          (F)     (DEG/KT/KT) (MB)    (FT/S) (FT/S)
30.1N   87.6W              53 62   30/ 16/ 17 1022.8R   2/ 4
29.2N   88.2W              60 66   40/ 14/ 17 1023.1R   3/ 5
28.7N   86.0W              60 70   30/ 14/ 17 1022.2    4/ 5
PANAMA CITY BEAC           43 59   30/  4/  7 1022.8R
CAPE SAN BLAS    NOT AVBL
TOWER C                    51      30/ 11/ 13 1022.3R
28.5N   84.5W              59 68   20/ 12/ 17 1021.7R   4/ 6   2/ 6

$$
FLZ011-016>038-118-127-128-134-139-239-281300-
NORTH FLORIDA

CITY           SKY/WX    TMP DP  RH WIND       PRES   REMARKS
MARIANNA       CLEAR     34  32  92 CALM      30.21R
TALLAHASSEE    CLEAR     33  27  78 CALM      30.20R
PERRY          CLEAR     32  32 100 CALM      30.20R
CROSS CITY       N/A     31  29  92 CALM      30.19R
LAKE CITY      FAIR      34  32  93 N6        30.18R WCI  29
GAINESVILLE    CLEAR     36  32  85 NW3       30.18R
MAYPORT NAS    PTCLDY    39  33  79 VRB5      30.17R WCI  36
JACKSONVILLE   CLEAR     35  32  88 NW7       30.17R WCI  29
JAX NAS        CLEAR     43  31  62 N15       30.17R WCI  36
JAX CRAIG      CLEAR     39  31  72 N10       30.17R WCI  32
JAX CECIL      CLEAR     32  30  93 CALM      30.17R
FERNANDINA BEA FAIR      43  34  70 NW8       30.16R WCI  38
ST AUGUSTINE   CLEAR     39  32  76 NW8       30.17R WCI  33

STATION/POSITION SKY/WX   TEMP    WIND        PRES    WAVE   SWELL
                          AIR SEA DIR/SP/G            HT/PER HT/PER
                          (F)     (DEG/KT/KT) (MB)    (FT/S) (FT/S)
SHELL POINT                40     340/  6/  7   N/A
KEATON BEACH               37      30/  3/  4 1022.6R
CEDAR KEY                  44      10/  4/  5 1021.8R
FERNANDINA                 40 56  330/  8/ 11 1021.0R
30.7N   81.3W                 57                N/A     3/ 5
MAYPORT                    40 58  330/  6/  8   N/A
31.4N   80.9W              44 54   10/ 16/ 21 1020.8R   3/ 4
ST AUGUSTINE               40     330/  9/ 11 1021.4R

$$
FLZ040-043>046-052-053-057-058-063-144-281300-
INTERIOR CENTRAL FLORIDA

CITY           SKY/WX    TMP DP  RH WIND       PRES   REMARKS
OCALA          CLEAR     36  30  80 CALM      30.17R
THE VILLAGES     N/A     41  34  75 NW5       30.08R WCI  38
LEESBURG       CLEAR     42  34  73 N7        30.17R WCI  38
SANFORD        CLEAR     45  35  68 N10       30.15R WCI  40
ORLANDO EXEC   CLEAR     47  35  63 N9        30.15R WCI  43
ORLANDO INTL   CLEAR     45  38  76 N8        30.16R WCI  41
KISSIMMEE      CLEAR     46  37  71 N5        30.16  WCI  44
WINTER HAVEN   CLEAR     47  37  68 N7        30.17R WCI  44
LAKELAND       CLEAR     43  41  93 CALM      30.17R
BARTOW         FAIR      45  37  76 NW3       30.17R
OKEECHOBEE     CLEAR     41  41 100 N6        30.14R WCI  37

$$
FLZ041-047-054-059-064-141-147-281300-
EAST CENTRAL FLORIDA

CITY           SKY/WX    TMP DP  RH WIND       PRES   REMARKS
ORMOND BEACH   CLEAR     37  32  81 CALM      30.15
DAYTONA BEACH  PTCLDY    43  33  68 NW7       30.16R WCI  39
DELAND         SUNNY    N/A N/A N/A W3        30.16R
NEW SMYRNA BEA CLEAR     43  32  65 NW7       30.15  WCI  39
JFK SPACE CTR  CLEAR     45  37  74 N9        30.12R WCI  40
TITUSVILLE     CLEAR     45  34  65 N12       30.14  WCI  39
CAPE CANAVERAL CLEAR     47  39  72 NW10      30.12R WCI  43
PATRICK AFB    CLEAR     49  38  65 NW13      30.13R WCI  44
MELBOURNE      CLEAR     42  34  73 NW8       30.13R WCI  37
VERO BEACH     CLEAR     45  38  76 NW9       30.13R WCI  40
FT PIERCE      CLEAR     44  39  82 NW7       30.12R WCI  40

STATION/POSITION SKY/WX   TEMP    WIND        PRES    WAVE   SWELL
                          AIR SEA DIR/SP/G            HT/PER HT/PER
                          (F)     (DEG/KT/KT) (MB)    (FT/S) (FT/S)
28.5N   80.2W              57 70  330/ 21/ 27 1018.5R
28.9N   78.5W              62 75  310/ 16/ 19 1017.4R   6/ 7   3/ 8
TRIDENT PIER               49 62  330/ 11/ 16 1019.6R
28.4N   80.5W                 63                N/A     2/ 6
27.6N   80.2W                 72                N/A     5/ 6

$$
FLZ050-056-061-142-242-148-248-149-249-151-251-155-255-
160-260-281300-
WEST CENTRAL FLORIDA

CITY           SKY/WX    TMP DP  RH WIND       PRES   REMARKS
CRYSTAL RIVER  FAIR      39  32  75 N3        30.18R
INVERNESS      FAIR      41  34  75 N5        30.18R WCI  38
BROOKSVILLE    CLEAR     35  33  92 CALM      30.19R
ZEPHYRHILLS    FAIR      37  36  93 CALM      30.18R FOG
CLEARWATER     CLEAR     51  39  63 N8        30.17R
TAMPA INTL     CLEAR     46  39  76 N3        30.18R
TAMPA EXEC     CLEAR     41  39  93 CALM      30.17R
PLANT CITY       N/A    N/A N/A N/A MISG        N/A
MACDILL AFB    CLEAR     45  40  80 N5        30.17R WCI  43
PETER O KNIGHT CLEAR     50  41  71 N3        30.17R
ST PETERSBURG  CLEAR     53  42  66 N7        30.16R
SARASOTA       CLEAR     48  39  71 NE7       30.15R WCI  45
VENICE         FAIR      50  41  71 N10       30.17R

STATION/POSITION SKY/WX   TEMP    WIND        PRES    WAVE   SWELL
                          AIR SEA DIR/SP/G            HT/PER HT/PER
                          (F)     (DEG/KT/KT) (MB)    (FT/S) (FT/S)
CEDAR KEY                  44      10/  4/  5 1021.8R
28.5N   84.5W              59 68   20/ 12/ 17 1021.7R   4/ 6   2/ 6
27.3N   84.3W                 72                N/A     5/ 6
CLEARWATER BEACH           51 61   40/  6/  9 1021.2R
MIDDLE TAMPA BAY           54      40/ 13/ 15 1021.5R
VENICE                     53 64   10/  9/ 10 1020.9R

$$
FLZ066-069-070-075>078-162-262-165-265-281300-
SOUTHWEST FLORIDA AND KEYS

CITY           SKY/WX    TMP DP  RH WIND       PRES   REMARKS
PUNTA GORDA    CLEAR     47  44  90 N6        30.17R WCI  44
FT MYERS       CLEAR     48  46  93 N3        30.14R
SOUTHWEST INTL CLEAR     49  47  93 N5        30.14R
NAPLES         CLEAR     53  46  77 N5        30.14R
MARCO ISLAND   SUNNY     52  43  71 N6        30.14R
IMMOKALEE      SUNNY     43 N/A N/A CALM      30.15R
MARATHON       CLEAR     61  50  67 N13       30.11R
KEY WEST NAS   PTCLDY    64  58  80 N16       30.11R
KEY WEST INTL  MOCLDY    64  58  80 N14       30.12R

STATION/POSITION SKY/WX   TEMP    WIND        PRES    WAVE   SWELL
                          AIR SEA DIR/SP/G            HT/PER HT/PER
                          (F)     (DEG/KT/KT) (MB)    (FT/S) (FT/S)
VENICE                     53 64   10/  9/ 10 1020.9R
NAPLES                     54 73   10/  5/  8 1021.0R
26.0N   85.6W              69 73  360/ 17/ 21 1020.4R   6/ 7
DRY TORTUGAS               68     360/ 20/ 22 1018.9R
NW FL BAY                  62      30/ 14/ 17 1018.8R
SAND KEY                   66      10/ 20/ 23 1019.4R
SOMBRERO KEY               62      20/ 21/ 22 1019.7R
LONG KEY                   62 67   10/ 18/ 20 1019.8R
MOLASSES REEF              59 74  360/ 20/ 21 1019.3R

$$
FLZ067-068-071>074-168-172>174-281300-
SOUTHEAST FLORIDA

CITY           SKY/WX    TMP DP  RH WIND       PRES   REMARKS
W PALM BEACH   PTCLDY    50  40  68 NW10      30.11R
FT LAUDER-EXEC CLEAR     52  42  69 N7        30.12R
FT LAUDERDALE  PTCLDY    52  43  71 N7        30.12R
POMPANO BEACH  CLEAR     53  40  61 N10       30.12R
PEMBROKE PINES CLEAR     50  44  80 NW6       30.14R
OPA LOCKA      CLEAR     53  43  68 N7        30.13R
MIAMI          PTCLDY    55  40  56 N5        30.13R
WEST KENDALL   CLEAR     54  45  71 N9        30.13R
HOMESTEAD      CLEAR     53  49  84 N7        30.12R

STATION/POSITION SKY/WX   TEMP    WIND        PRES    WAVE   SWELL
                          AIR SEA DIR/SP/G            HT/PER HT/PER
                          (F)     (DEG/KT/KT) (MB)    (FT/S) (FT/S)
PORT EVERGLADES            55     320/  7/ 11 1019.5
VIRGINIA KEY               56 67  350/  8/ 13 1020.1R
LAKE WORTH                 53 72  310/ 10/ 12 1019.1R
SETTLEMENT POINT           65     320/ 18/ 21 1018.3R

$$




USA.gov is the U.S. government's official web portal to all federal, state and local government web resources and services.